This is the latest recevied weather packets stored in our database for station/object N4HAC. If no packets are shown the sender has not sent any weather packets the latest 10 day(s).
| Time | Temp. | Humidity | Pressure | Rain* | Wind** | Luminosity | Snow |
|---|---|---|---|---|---|---|---|
| 1777279211 | 4.44° C | 99% | 1017.2 hPa | 0 mm | - | 0 W/m² | - |
| 1777278909 | 5° C | 99% | 1017.4 hPa | 0 mm | - | 0 W/m² | - |
| 1777278604 | 4.44° C | 99% | 1017.4 hPa | 0 mm | - | 0 W/m² | - |
| 1777278301 | 4.44° C | 99% | 1017.4 hPa | 0 mm | - | 0 W/m² | - |
| 1777277997 | 5° C | 99% | 1017.4 hPa | 0 mm | - | 0 W/m² | - |
| 1777277695 | 5° C | 99% | 1017.4 hPa | 0 mm | - | 0 W/m² | - |
| 1777277390 | 5.56° C | 99% | 1017.4 hPa | 0 mm | - | 0 W/m² | - |
| 1777277085 | 5.56° C | 99% | 1017.3 hPa | 0 mm | - | 0 W/m² | - |
| 1777276780 | 5.56° C | 99% | 1017.3 hPa | 0 mm | - | 0 W/m² | - |
| 1777276479 | 5° C | 99% | 1017.2 hPa | 0 mm | - | 0 W/m² | - |
| 1777276174 | 5.56° C | 99% | 1017.3 hPa | 0 mm | - | 0 W/m² | - |
| 1777275872 | 6.11° C | 99% | 1017.1 hPa | 0 mm | - | 0 W/m² | - |
| 1777275569 | 5.56° C | 99% | 1017.2 hPa | 0 mm | - | 0 W/m² | - |
| 1777275267 | 6.11° C | 99% | 1017.2 hPa | 0 mm | - | 0 W/m² | - |
| 1777274961 | 6.11° C | 99% | 1017.3 hPa | 0 mm | - | 0 W/m² | - |
| 1777274659 | 6.67° C | 99% | 1017.1 hPa | 0 mm | - | 0 W/m² | - |
| 1777274356 | 6.67° C | 99% | 1017.1 hPa | 0 mm | - | 0 W/m² | - |
| 1777274050 | 6.67° C | 99% | 1017.2 hPa | 0 mm | - | 0 W/m² | - |
| 1777273747 | 6.11° C | 99% | 1017.1 hPa | 0 mm | - | 0 W/m² | - |
| 1777273445 | 6.67° C | 99% | 1017.1 hPa | 0 mm | - | 0 W/m² | - |
| 1777273142 | 6.67° C | 99% | 1017 hPa | 0 mm | - | 0 W/m² | - |
| 1777272839 | 7.22° C | 99% | 1017.1 hPa | 0 mm | - | 0 W/m² | - |
| 1777272537 | 7.22° C | 99% | 1016.9 hPa | 0 mm | - | 0 W/m² | - |
| 1777272235 | 7.78° C | 99% | 1017.1 hPa | 0 mm | - | 0 W/m² | - |
| 1777271930 | 7.22° C | 99% | 1017.2 hPa | 0 mm | - | 0 W/m² | - |
* Rain latest hour (hover to see other rain measurements)
** Current wind speed in m/s (hover to see current wind gust speed)